Overview Statistics Trail Chart Weather Telemetry Raw packets
 

This is the latest recevied weather packets stored in our database for station/object KB4RFE. If no packets are shown the sender has not sent any weather packets the latest 10 day(s).

<< 91 92 93 94 95 96 97 >>
Time Temp. Humidity Pressure Rain* Wind** Luminosity Snow
1787951515 26.67° C 95% 1019.8 hPa 0 mm - 76 W/m² -
1787951212 26.67° C 95% 1019.6 hPa 0.51 mm - 65 W/m² -
1787950907 26.67° C 95% 1019.9 hPa 1.27 mm - 90 W/m² -
1787950603 26.67° C 95% 1019.8 hPa 1.27 mm - 98 W/m² -
1787950298 26.67° C 95% 1019.7 hPa 0.51 mm - 103 W/m² -
1787949995 26.67° C 95% 1019.6 hPa 0.51 mm - 109 W/m² -
1787949690 26.67° C 95% 1019.9 hPa 1.78 mm - 113 W/m² -
1787949390 26.67° C 95% 1019.8 hPa 1.78 mm - 118 W/m² -
1787949090 26.67° C 95% 1019.7 hPa 1.78 mm - 119 W/m² -
1787948786 26.67° C 95% 1019.9 hPa 1.78 mm - 110 W/m² -
1787948485 26.67° C 94% 1020 hPa 2.29 mm - 97 W/m² -
1787948181 26.67° C 94% 1020 hPa 2.29 mm - 85 W/m² -
1787947880 26.67° C 94% 1020 hPa 1.78 mm - 71 W/m² -
1787947576 26.67° C 94% 1020.1 hPa 1.78 mm - 62 W/m² -
1787947274 26.67° C 94% 1020.1 hPa 2.29 mm - 58 W/m² -
1787946974 26.67° C 93% 1020.1 hPa 2.29 mm - 55 W/m² -
1787946672 26.67° C 93% 1020.4 hPa 2.29 mm - 52 W/m² -
1787946368 26.67° C 92% 1020.4 hPa 2.29 mm - 48 W/m² -
1787946062 26.67° C 92% 1020.4 hPa 3.05 mm - 46 W/m² -
1787945762 26.67° C 91% 1020.5 hPa 2.29 mm - 49 W/m² -
1787945457 27.22° C 90% 1020.6 hPa 2.29 mm - 51 W/m² -
1787945153 27.22° C 89% 1020.5 hPa 2.29 mm - 48 W/m² -
1787944850 27.22° C 89% 1020.6 hPa 1.78 mm - 50 W/m² -
1787944545 27.22° C 88% 1020.7 hPa 0.51 mm - 53 W/m² -
1787944241 27.78° C 86% 1020.5 hPa 0 mm - 60 W/m² -

* Rain latest hour (hover to see other rain measurements)
** Current wind speed in m/s (hover to see current wind gust speed)